sat.trackr.live / text

‹ back to catalog

STARLINK-3857

NORAD 52494 · 2022-049AV

PAYLOAD ACTIVE UNKNOWN

§ Identity

Operator
Country
US
Launch date
2022-05-06
Launch site
AFETR
Launch vehicle
Mass (kg)
RCS (m²)

Purposes: comms

External: N2YO · Heavens-Above · Gunter

§ Orbital elements

Epoch: 2026-05-25T04:25:18.387840Z

Period
95.44 min
Inclination
53.2141°
Eccentricity
0.0001217
Mean motion
15.08844032 rev/d
Perigee alt
538.9 km
Apogee alt
540.6 km
Semi-major
6,917.9 km
B*
-6.0250e-5
RAAN
65.7199°
Arg perigee
80.4584°
Mean anomaly
279.6546°
Rev number
22,394

§ Raw data

STARLINK-38571 52494U 22049AV  26145.18424060 -.00001247  00000+0 -60250-4 0  99962 52494  53.2141  65.7199 0001217  80.4584 279.6546 15.08844032223943

JSON: /api/v1/satellites/52494 · /tle

For live sub-satellite position, see the globe view (requires WebGL).

§ Visibility from observer

Set your observer location to see the next 7 days of passes ≥ 10°. The values pass through the URL so the page stays shareable.

No JS? Fill the form by hand. The geolocation button needs JavaScript.